Meadville, PA

8:30 PM EST on December 06, 2019 (GMT -0500)
Port Meadville

Weather History for KGKJ - November, 2019

Change the Weather History Date:

Tuesday, November 12, 2019

  Actual Average Record
Temperature  
Mean Temperature 21 °F -  
Max Temperature 26 °F 46 °F 70 °F (1964)
Min Temperature 16 °F 33 °F 16 °F (1957)
Degree Days  
Heating Degree Days 44    
Moisture  
Dew Point 19 °F    
Average Humidity 84    
Maximum Humidity 92    
Minimum Humidity 58    
Precipitation  
Precipitation 0.06 in - - ()
Sea Level Pressure  
Sea Level Pressure 30.09 in    
Wind  
Wind Speed 8 mph ()    
Max Wind Speed 15 mph    
Max Gust Speed 22 mph    
Visibility 9.2 miles    
Events Snow    
Averages and records for this station are not official NWS values.
T = Trace of Precipitation, MM = Missing Value Source: Averaged Metar Reports

Daily Weather History Graph

Daily Weather History Graph

Search for Another Location

Airport or City:

Astronomy

Nov. 12, 2019 Rise Set
Actual Time 7:05 AM EST 5:03 PM EST
Civil Twilight 6:36 AM EST 5:33 PM EST
Nautical Twilight 6:02 AM EST 6:06 PM EST
Astronomical Twilight 5:30 AM EST 6:39 PM EST
Moon 5:30 PM EST (11/12) 6:55 AM EST (11/12)
Length of Visible Light 10h 56m
Length of Day
9h 57m
Full, 100% of the Moon is Illuminated
Nov 12
Full
Nov 19
Last Quarter
Nov 26
New
Dec 4
First Quarter
Dec 12
Full

Hourly Weather History & Observations

Time (EST) Temp. Windchill Dew Point Humidity Pressure Visibility Wind Dir Wind Speed Gust Speed Precip Events Conditions
12:00 AM 25.0 °F 14.8 °F 23.0 °F 92% 29.88 in 9.0 mi NNE 10.4 mph - 0.00 in Snow Light Snow
12:22 AM 26.1 °F 14.5 °F 23.0 °F 88% 29.88 in 9.0 mi North 13.8 mph - 0.00 in Snow Light Snow
12:39 AM 26.1 °F 15.6 °F 23.0 °F 88% 29.89 in 9.0 mi North 11.5 mph - 0.00 in Snow Light Snow
12:46 AM 25.0 °F 14.8 °F 23.0 °F 92% 29.90 in 9.0 mi North 10.4 mph - 0.00 in Snow Light Snow
12:53 AM 26.1 °F 16.2 °F 23.0 °F 88% 29.94 in 9.0 mi North 10.4 mph - 0.01 in Snow Light Snow
1:03 AM 26.1 °F 17.6 °F 23.0 °F 88% 29.90 in 9.0 mi North 8.1 mph - 0.00 in Snow Light Snow
1:16 AM 26.1 °F 19.4 °F 23.0 °F 88% 29.90 in 9.0 mi North 5.8 mph - 0.00 in Snow Light Snow
1:46 AM 26.1 °F 18.4 °F 24.1 °F 92% 29.92 in 9.0 mi North 6.9 mph - 0.00 in Snow Light Snow
1:53 AM 26.1 °F 17.6 °F 24.1 °F 92% 29.96 in 9.0 mi North 8.1 mph - 0.00 in Snow Light Snow
2:09 AM 26.1 °F 18.4 °F 24.1 °F 92% 29.92 in 9.0 mi Variable 6.9 mph - 0.00 in Snow Light Snow
2:21 AM 26.1 °F 16.8 °F 24.1 °F 92% 29.93 in 9.0 mi North 9.2 mph - 0.00 in Snow Light Snow
2:53 AM 26.1 °F 16.2 °F 23.0 °F 88% 29.99 in 9.0 mi North 10.4 mph - 0.00 in Snow Light Snow
3:53 AM 25.0 °F 15.5 °F 21.9 °F 88% 30.01 in 9.0 mi North 9.2 mph - 0.00 in   Overcast
4:35 AM 25.0 °F 15.5 °F 21.9 °F 88% 29.98 in 9.0 mi North 9.2 mph - 0.00 in Snow Light Snow
4:53 AM 25.0 °F 16.3 °F 21.9 °F 88% 30.03 in 9.0 mi North 8.1 mph - 0.00 in Snow Light Snow
5:00 AM 25.0 °F 18.1 °F 23.0 °F 92% 29.99 in 9.0 mi NNW 5.8 mph - 0.00 in Snow Light Snow
5:20 AM 25.0 °F 17.1 °F 21.9 °F 88% 29.99 in 9.0 mi NNW 6.9 mph 17.3 mph 0.00 in Snow Light Snow
5:53 AM 25.0 °F 17.1 °F 21.9 °F 88% 30.05 in 9.0 mi NW 6.9 mph - 0.00 in Snow Light Snow
6:04 AM 25.0 °F 18.1 °F 21.9 °F 88% 30.00 in 9.0 mi NNW 5.8 mph - 0.00 in Snow Light Snow
6:14 AM 25.0 °F 18.1 °F 21.9 °F 88% 30.01 in 9.0 mi NNW 5.8 mph - 0.00 in Snow Light Snow
6:44 AM 24.1 °F 15.2 °F 21.0 °F 88% 30.02 in 9.0 mi North 8.1 mph - 0.00 in Snow Light Snow
6:53 AM 24.1 °F 16.0 °F 21.0 °F 88% 30.07 in 9.0 mi North 6.9 mph - 0.00 in Snow Light Snow
7:02 AM 24.1 °F 15.2 °F 21.0 °F 88% 30.02 in 9.0 mi North 8.1 mph - 0.00 in Snow Light Snow
7:15 AM 24.1 °F 15.2 °F 21.0 °F 88% 30.03 in 9.0 mi NNW 8.1 mph - 0.00 in Snow Light Snow
7:43 AM 24.1 °F 14.4 °F 19.9 °F 84% 30.04 in 9.0 mi North 9.2 mph - 0.00 in   Overcast
7:51 AM 24.8 °F 15.3 °F 19.4 °F 80% 30.05 in 10.0 mi North 9.2 mph - 0.00 in Snow Light Snow
7:53 AM 24.1 °F 15.2 °F 19.9 °F 84% 30.10 in 10.0 mi North 8.1 mph - 0.00 in Snow Light Snow
8:28 AM 24.1 °F 13.1 °F 19.0 °F 81% 30.06 in 9.0 mi North 11.5 mph - 0.00 in Snow Light Snow
8:53 AM 23.0 °F 11.7 °F 19.0 °F 85% 30.13 in 9.0 mi NNW 11.5 mph - 0.00 in Snow Light Snow
9:13 AM 24.1 °F 13.1 °F 19.0 °F 81% 30.08 in 10.0 mi North 11.5 mph - 0.00 in   Overcast
9:35 AM 23.0 °F 13.9 °F 18.0 °F 81% 30.08 in 10.0 mi North 8.1 mph - 0.00 in Snow Light Snow
9:53 AM 23.0 °F 12.4 °F 17.1 °F 78% 30.14 in 9.0 mi NNW 10.4 mph - 0.00 in   Overcast
10:53 AM 23.0 °F 13.9 °F 16.0 °F 74% 30.15 in 9.0 mi North 8.1 mph - 0.00 in Snow Light Snow
11:01 AM 23.0 °F 15.8 °F 18.0 °F 81% 30.09 in 9.0 mi NNW 5.8 mph - 0.00 in Snow Light Snow
11:12 AM 23.0 °F 15.8 °F 19.0 °F 85% 30.10 in 9.0 mi North 5.8 mph - 0.00 in Snow Light Snow
11:44 AM 23.0 °F 11.7 °F 16.0 °F 74% 30.10 in 10.0 mi NNW 11.5 mph - 0.00 in   Overcast
11:53 AM 23.0 °F 14.7 °F 17.1 °F 78% 30.16 in 9.0 mi North 6.9 mph - 0.00 in Snow Light Snow
12:13 PM 21.9 °F 11.7 °F 18.0 °F 85% 30.10 in 9.0 mi North 9.2 mph 18.4 mph 0.01 in Snow Light Snow
12:24 PM 23.0 °F 17.0 °F 18.0 °F 81% 30.10 in 9.0 mi Variable 4.6 mph - 0.01 in Snow Light Snow
12:43 PM 24.1 °F 14.4 °F 14.0 °F 65% 30.10 in 9.0 mi North 9.2 mph 21.9 mph 0.01 in Snow Light Snow
12:53 PM 25.0 °F 12.6 °F 12.0 °F 58% 30.16 in 10.0 mi North 15.0 mph 19.6 mph 0.01 in   Overcast
1:05 PM 21.9 °F 12.5 °F 17.1 °F 82% 30.11 in 9.0 mi North 8.1 mph 19.6 mph 0.00 in Snow Light Snow
1:15 PM 21.9 °F 11.7 °F 17.1 °F 82% 30.12 in 9.0 mi North 9.2 mph - 0.00 in Snow Light Snow
1:53 PM 21.9 °F 12.5 °F 16.0 °F 78% 30.19 in 9.0 mi NNW 8.1 mph - 0.00 in Snow Light Snow
2:46 PM 21.0 °F 10.6 °F 17.1 °F 85% 30.14 in 9.0 mi North 9.2 mph - 0.00 in Snow Light Snow
2:53 PM 21.0 °F 11.4 °F 17.1 °F 85% 30.20 in 9.0 mi North 8.1 mph - 0.00 in Snow Light Snow
3:26 PM 19.9 °F 10.1 °F 16.0 °F 85% 30.16 in 9.0 mi NNW 8.1 mph - 0.00 in Snow Light Snow
3:53 PM 19.9 °F 11.1 °F 16.0 °F 85% 30.23 in 10.0 mi North 6.9 mph - 0.01 in Snow Light Snow
4:45 PM 19.9 °F 14.9 °F 17.1 °F 89% 30.18 in 9.0 mi NW 3.5 mph - 0.01 in Snow Light Snow
4:53 PM 19.9 °F 13.4 °F 17.1 °F 89% 30.25 in 9.0 mi WNW 4.6 mph - 0.01 in Snow Light Snow
5:13 PM 19.9 °F 9.3 °F 16.0 °F 85% 30.19 in 9.0 mi NW 9.2 mph - 0.00 in Snow Light Snow
5:53 PM 19.9 °F 13.4 °F 16.0 °F 85% 30.26 in 9.0 mi West 4.6 mph - 0.01 in Snow Light Snow
6:22 PM 19.0 °F 10.0 °F 16.0 °F 88% 30.21 in 9.0 mi WNW 6.9 mph - 0.01 in Snow Light Snow
6:39 PM 19.0 °F 9.0 °F 15.1 °F 85% 30.21 in 9.0 mi NW 8.1 mph 19.6 mph 0.01 in Snow Light Snow
6:48 PM 19.4 °F 8.6 °F 15.8 °F 86% 30.21 in 9.0 mi NNW 9.2 mph 20.7 mph 0.01 in Snow Light Snow
6:53 PM 19.0 °F 9.0 °F 15.1 °F 85% 30.28 in 9.0 mi NNW 8.1 mph - 0.01 in Snow Light Snow
7:11 PM 18.0 °F 11.1 °F 14.0 °F 84% 30.22 in 10.0 mi WNW 4.6 mph - 0.00 in   Scattered Clouds
7:53 PM 16.0 °F 7.4 °F 12.9 °F 88% 30.30 in 10.0 mi West 5.8 mph - 0.00 in   Scattered Clouds
8:53 PM 18.0 °F 11.1 °F 12.9 °F 81% 30.30 in 9.0 mi NW 4.6 mph - 0.00 in Snow Light Snow
9:53 PM 18.0 °F 9.8 °F 12.0 °F 78% 30.31 in 10.0 mi West 5.8 mph - 0.00 in   Overcast
10:53 PM 19.0 °F 11.1 °F 12.0 °F 74% 30.31 in 10.0 mi West 5.8 mph - 0.00 in   Overcast
11:53 PM 17.1 °F 8.7 °F 10.0 °F 74% 30.31 in 10.0 mi WSW 5.8 mph - N/A   Mostly Cloudy